sat.trackr.live / text

‹ back to catalog

STARLINK-31845

NORAD 60129 · 2024-118S

PAYLOAD ACTIVE UNKNOWN

§ Identity

Operator
Country
US
Launch date
2024-06-24
Launch site
AFWTR
Launch vehicle
Mass (kg)
RCS (m²)

Purposes: comms

External: N2YO · Heavens-Above · Gunter

§ Orbital elements

Epoch: 2026-09-21T05:24:11.439360Z

Period
93.85 min
Inclination
53.1594°
Eccentricity
0.0001209
Mean motion
15.34398833 rev/d
Perigee alt
461.9 km
Apogee alt
463.5 km
Semi-major
6,840.8 km
B*
1.8210e-5
RAAN
194.2210°
Arg perigee
74.1988°
Mean anomaly
285.9148°
Rev number
12,569

§ Raw data

STARLINK-318451 60129U 24118S   26264.22513240  .00000239  00000+0  18210-4 0  99922 60129  53.1594 194.2210 0001209  74.1988 285.9148 15.34398833125692

JSON: /api/v1/satellites/60129 · /tle

For live sub-satellite position, see the globe view (requires WebGL).

§ Visibility from observer

Set your observer location to see the next 7 days of passes ≥ 10°. The values pass through the URL so the page stays shareable.

No JS? Fill the form by hand. The geolocation button needs JavaScript.